Weather History for West Plains, MO

Change the Weather History Date:

Saturday, August 9, 2014

  Actual Average Record
Temperature  
Mean Temperature 79 °F 78 °F  
Max Temperature 89 °F 91 °F 103 °F (1969)
Min Temperature 69 °F 66 °F 51 °F (1989)
Degree Days  
Heating Degree Days 0 0  
Month to date heating degree days 0 0  
Since 1 June heating degree days 4 5  
Since 1 July heating degree days 2 0  
Cooling Degree Days 14 13  
Month to date cooling degree days 100 117  
Year to date cooling degree days 749 910  
Since 1 June cooling degree days 599 788  
Growing Degree Days 28 (Base 50)    
Moisture  
Dew Point 68 °F    
Average Humidity 73    
Maximum Humidity 90    
Minimum Humidity 55    
Precipitation  
Precipitation 0.00 in 0.08 in 1.55 in (1970)
Month to date precipitation 2.56 0.95  
Year to date precipitation 21.40 27.79  
Sea Level Pressure  
Sea Level Pressure 29.97 in    
Wind  
Wind Speed 4 mph (NNW)    
Max Wind Speed 13 mph    
Max Gust Speed 15 mph    
Visibility 10 miles    
Events      
T = Trace of Precipitation, MM = Missing Value Source: NWS Daily Summary

Daily Weather History Graph

Daily Weather History Graph

Search for Another Location

Airport:

Trip Planner

Search our weather history database for the weather conditions in past years. The results will help you decide how hot, cold, wet, or windy it might be!

Date:

Astronomy

Aug. 09, 2014 Rise Set
Actual Time 6:19 AM CDT 8:05 PM CDT
Civil Twilight 5:51 AM CDT 8:33 PM CDT
Nautical Twilight 5:17 AM CDT 9:07 PM CDT
Astronomical Twilight 4:41 AM CDT 9:43 PM CDT
Moon 7:08 PM CDT (8/9) 5:00 AM CDT (8/9)
Length of Visible Light 14h 42m
Length of Day
13h 46m
Waxing Gibbous, 98% of the Moon is Illuminated
Aug 9
Waxing Gibbous
Aug 10
Full
Aug 17
Last Quarter
Aug 25
New
Sep 2
First Quarter

Hourly Weather History & Observations

Time (CDT) Temp. Heat Index Dew Point Humidity Pressure Visibility Wind Dir Wind Speed Gust Speed Precip Events Conditions
12:53 AM 72.0 °F - 68.0 °F 87% 29.95 in 10.0 mi NNE 3.5 mph - N/A   Clear
1:53 AM 71.1 °F - 66.9 °F 87% 29.95 in 10.0 mi NNE 3.5 mph - N/A   Clear
2:53 AM 70.0 °F - 66.9 °F 90% 29.94 in 10.0 mi NNE 3.5 mph - N/A   Clear
3:53 AM 70.0 °F - 66.9 °F 90% 29.94 in 8.0 mi North 3.5 mph - N/A   Clear
4:53 AM 70.0 °F - 66.9 °F 90% 29.95 in 9.0 mi North 4.6 mph - N/A   Clear
5:53 AM 69.1 °F - 66.0 °F 90% 29.96 in 8.0 mi NNW 4.6 mph - N/A   Clear
6:53 AM 70.0 °F - 66.9 °F 90% 29.97 in 7.0 mi Calm Calm - N/A   Clear
7:50 AM 73.4 °F - 68.0 °F 83% 30.02 in 10.0 mi Calm Calm - N/A   Partly Cloudy
7:53 AM 73.9 °F - 68.0 °F 82% 29.98 in 10.0 mi NNW 3.5 mph - N/A   Clear
8:53 AM 80.1 °F 82.9 °F 69.1 °F 69% 29.99 in 10.0 mi Variable 4.6 mph - N/A   Clear
9:53 AM 81.0 °F 84.1 °F 69.1 °F 67% 29.98 in 10.0 mi Variable 5.8 mph - N/A   Clear
10:53 AM 82.9 °F 85.8 °F 68.0 °F 60% 30.00 in 10.0 mi West 8.1 mph - N/A   Partly Cloudy
12:53 PM 84.9 °F 88.2 °F 68.0 °F 57% 29.99 in 10.0 mi West 4.6 mph - N/A   Scattered Clouds
1:53 PM 86.0 °F 89.4 °F 68.0 °F 55% 29.99 in 10.0 mi Calm Calm - N/A   Mostly Cloudy
2:53 PM 87.1 °F 91.3 °F 69.1 °F 55% 29.95 in 10.0 mi NNW 9.2 mph - N/A   Partly Cloudy
3:53 PM 84.9 °F 88.8 °F 69.1 °F 59% 29.96 in 10.0 mi North 9.2 mph - N/A   Scattered Clouds
4:53 PM 82.9 °F 87.0 °F 70.0 °F 65% 29.98 in 10.0 mi Calm Calm - N/A   Clear
5:53 PM 82.0 °F 86.3 °F 71.1 °F 69% 29.99 in 10.0 mi North 3.5 mph - N/A   Clear
6:53 PM 80.1 °F 83.6 °F 71.1 °F 74% 29.95 in 10.0 mi North 3.5 mph - N/A   Clear
7:53 PM 78.1 °F - 70.0 °F 76% 29.94 in 10.0 mi North 4.6 mph - N/A   Clear
8:53 PM 77.0 °F - 69.1 °F 76% 29.94 in 10.0 mi Calm Calm - N/A   Clear
10:53 PM 72.0 °F - 68.0 °F 87% 29.99 in 10.0 mi Calm Calm - N/A   Partly Cloudy
11:53 PM 73.0 °F - 69.1 °F 87% 29.99 in 10.0 mi West 3.5 mph - N/A   Overcast